Weather History for Bennettsville, SC

Change the Weather History Date:

Saturday, October 5, 2013

  Actual Average (KFLO) Record (KFLO)
Temperature  
Mean Temperature 74 °F 68 °F  
Max Temperature 89 °F 79 °F 100 °F (1954)
Min Temperature 60 °F 57 °F 39 °F (1968)
Degree Days  
Heating Degree Days 0 2  
Month to date heating degree days 7  
Since 1 July heating degree days 16  
Cooling Degree Days 10 4  
Month to date cooling degree days 24  
Year to date cooling degree days 1980  
Growing Degree Days 24 (Base 50)    
Moisture  
Dew Point 52 °F    
Average Humidity 52    
Maximum Humidity 82    
Minimum Humidity 18    
Precipitation  
Precipitation 0.00 in 0.12 in 3.05 in (1964)
Month to date precipitation 0.59  
Year to date precipitation 34.74  
Sea Level Pressure  
Sea Level Pressure 30.09 in    
Wind  
Wind Speed 1 mph (SE)    
Max Wind Speed 8 mph    
Max Gust Speed -    
Visibility 7 miles    
Events      
T = Trace of Precipitation, MM = Missing Value Source: NWS Daily Summary

Daily Weather History Graph

Daily Weather History Graph

Search for Another Location

Airport:

Trip Planner

Search our weather history database for the weather conditions in past years. The results will help you decide how hot, cold, wet, or windy it might be!

Date:

Astronomy

Oct. 05, 2013 Rise Set
Actual Time 7:16 AM EDT 6:57 PM EDT
Civil Twilight 6:51 AM EDT 7:22 PM EDT
Nautical Twilight 6:22 AM EDT 7:51 PM EDT
Astronomical Twilight 5:53 AM EDT 8:20 PM EDT
Moon 7:51 AM EDT (10/5) 7:19 PM EDT (10/5)
Length of Visible Light 12h 30m
Length of Day
11h 40m
New Moon, 0% of the Moon is Illuminated
Oct 5
New Moon
Oct 11
First Quarter
Oct 18
Full
Oct 26
Last Quarter
Nov 3
New

Hourly Weather History & Observations

Time (EDT) Temp. Heat Index Dew Point Humidity Pressure Visibility Wind Dir Wind Speed Gust Speed Precip Events Conditions
12:15 AM 64.4 °F - 55.4 °F 73% 30.11 in 10.0 mi Calm Calm - N/A   Clear
12:35 AM 64.4 °F - 55.4 °F 73% 30.11 in 7.0 mi Calm Calm - N/A   Clear
12:55 AM 64.4 °F - 53.6 °F 68% 30.11 in 4.0 mi Calm Calm - N/A   Haze
1:15 AM 64.4 °F - 53.6 °F 68% 30.10 in 4.0 mi Calm Calm - N/A   Haze
1:35 AM 62.6 °F - 51.8 °F 68% 30.10 in 5.0 mi Calm Calm - N/A   Haze
1:55 AM 62.6 °F - 51.8 °F 68% 30.10 in 0.2 mi Calm Calm - N/A   Haze
2:15 AM 64.4 °F - 48.2 °F 56% 30.10 in 7.0 mi Calm Calm - N/A   Clear
2:35 AM 62.6 °F - 42.8 °F 48% 30.10 in 0.8 mi Calm Calm - N/A   Haze
2:55 AM 62.6 °F - 44.6 °F 52% 30.09 in 0.5 mi Calm Calm - N/A   Haze
3:15 AM 62.6 °F - 44.6 °F 52% 30.09 in 4.0 mi Calm Calm - N/A   Haze
3:35 AM 62.6 °F - 33.8 °F 34% 30.09 in 0.5 mi Calm Calm - N/A   Haze
3:55 AM 62.6 °F - 28.4 °F 27% 30.08 in 0.2 mi Calm Calm - N/A   Haze
4:15 AM 60.8 °F - 28.4 °F 29% 30.08 in 0.2 mi Calm Calm - N/A   Haze
4:35 AM 60.8 °F - 55.4 °F 82% 30.09 in 0.2 mi Calm Calm - N/A   Haze
4:55 AM 62.6 °F - 55.4 °F 77% 30.09 in 0.2 mi Calm Calm - N/A   Haze
5:15 AM 62.6 °F - 55.4 °F 77% 30.09 in 0.2 mi Calm Calm - N/A   Haze
5:35 AM 62.6 °F - 55.4 °F 77% 30.09 in 0.2 mi Calm Calm - N/A   Haze
5:55 AM 60.8 °F - 53.6 °F 77% 30.10 in 0.2 mi Calm Calm - N/A   Haze
6:15 AM 60.8 °F - 53.6 °F 77% 30.10 in 0.2 mi Calm Calm - N/A   Haze
6:35 AM 60.8 °F - 53.6 °F 77% 30.11 in 0.5 mi Calm Calm - N/A   Haze
6:55 AM 60.8 °F - 53.6 °F 77% 30.11 in 0.2 mi Calm Calm - N/A   Haze
7:15 AM 62.6 °F - 53.6 °F 72% 30.12 in 0.2 mi Calm Calm - N/A   Haze
7:35 AM 60.8 °F - 51.8 °F 72% 30.12 in 0.2 mi Calm Calm - N/A   Haze
7:55 AM 62.6 °F - 51.8 °F 68% 30.12 in 0.2 mi Calm Calm - N/A   Haze
8:15 AM 62.6 °F - 50.0 °F 63% 30.13 in 0.5 mi Calm Calm - N/A   Haze
8:35 AM 64.4 °F - 51.8 °F 64% 30.13 in 2.5 mi Calm Calm - N/A   Haze
8:55 AM 66.2 °F - 50.0 °F 56% 30.13 in 7.0 mi Calm Calm - N/A   Clear
9:15 AM 60.8 °F - 42.8 °F 52% 30.13 in 10.0 mi Calm Calm - N/A   Clear
9:35 AM 60.8 °F - 42.8 °F 52% 30.13 in 10.0 mi Calm Calm - N/A   Clear
9:55 AM 62.6 °F - 41.0 °F 45% 30.13 in 10.0 mi Calm Calm - N/A   Clear
10:15 AM 68.0 °F - 32.0 °F 26% 30.13 in 10.0 mi Calm Calm - N/A   Clear
10:35 AM 78.8 °F - 32.0 °F 18% 30.13 in 10.0 mi Calm Calm - N/A   Clear
10:55 AM 80.6 °F - - N/A% 30.13 in 10.0 mi Calm Calm - N/A   Clear
11:15 AM 84.2 °F - - N/A% 30.12 in 10.0 mi SE 3.5 mph - N/A   Clear
11:35 AM 86.0 °F - - N/A% 30.12 in 10.0 mi ESE 3.5 mph - N/A   Clear
11:55 AM 86.0 °F - - N/A% 30.11 in 10.0 mi Calm Calm - N/A   Clear
12:15 PM 87.8 °F - - N/A% 30.11 in 10.0 mi Calm Calm - N/A   Clear
12:35 PM 89.6 °F - - N/A% 30.11 in 10.0 mi Calm Calm - N/A   Scattered Clouds
12:55 PM 87.8 °F - 44.6 °F 22% 30.10 in 10.0 mi SE 4.6 mph - N/A   Scattered Clouds
1:15 PM 89.6 °F - 48.2 °F 24% 30.09 in 10.0 mi SE 3.5 mph - N/A   Clear
1:35 PM 89.6 °F - 51.8 °F 27% 30.08 in 10.0 mi South 6.9 mph - N/A   Clear
1:55 PM 87.8 °F - 50.0 °F 27% 30.08 in 10.0 mi Calm Calm - N/A   Clear
2:15 PM 89.6 °F 87.3 °F 53.6 °F 29% 30.07 in 10.0 mi SE 5.8 mph - N/A   Clear
2:35 PM 89.6 °F 87.3 °F 53.6 °F 29% 30.06 in 10.0 mi South 8.1 mph - N/A   Scattered Clouds
2:55 PM 87.8 °F 85.7 °F 53.6 °F 31% 30.06 in 10.0 mi SE 3.5 mph - N/A   Scattered Clouds
3:15 PM 89.6 °F 87.7 °F 55.4 °F 31% 30.06 in 10.0 mi ESE 5.8 mph - N/A   Mostly Cloudy
3:35 PM 89.6 °F 87.7 °F 55.4 °F 31% 30.05 in 10.0 mi South 4.6 mph - N/A   Scattered Clouds
3:55 PM 89.6 °F 87.7 °F 55.4 °F 31% 30.05 in 10.0 mi SE 8.1 mph - N/A   Scattered Clouds
4:15 PM 89.6 °F 87.7 °F 55.4 °F 31% 30.04 in 10.0 mi SSE 4.6 mph - N/A   Scattered Clouds
4:35 PM 89.6 °F 87.7 °F 55.4 °F 31% 30.04 in 10.0 mi South 4.6 mph - N/A   Clear
4:55 PM 89.6 °F 87.7 °F 55.4 °F 31% 30.03 in 10.0 mi SSE 6.9 mph - N/A   Clear
5:15 PM 89.6 °F 87.7 °F 55.4 °F 31% 30.04 in 10.0 mi SE 5.8 mph - N/A   Clear
5:35 PM 89.6 °F 87.7 °F 55.4 °F 31% 30.03 in 10.0 mi ESE 5.8 mph - N/A   Clear
5:55 PM 87.8 °F 86.1 °F 55.4 °F 33% 30.03 in 10.0 mi East 5.8 mph - N/A   Clear
6:15 PM 87.8 °F 86.1 °F 55.4 °F 33% 30.04 in 10.0 mi SE 3.5 mph - N/A   Clear
6:35 PM 86.0 °F 84.9 °F 57.2 °F 37% 30.04 in 10.0 mi Calm Calm - N/A   Clear
6:55 PM 82.4 °F 82.5 °F 59.0 °F 45% 30.03 in 10.0 mi Calm Calm - N/A   Clear
7:15 PM 78.8 °F - 60.8 °F 54% 30.03 in 10.0 mi SSE 3.5 mph - N/A   Clear
7:35 PM 75.2 °F - 60.8 °F 61% 30.04 in 10.0 mi Calm Calm - N/A   Clear
7:55 PM 73.4 °F - 59.0 °F 61% 30.04 in 10.0 mi Calm Calm - N/A   Clear
8:15 PM 73.4 °F - 59.0 °F 61% 30.04 in 10.0 mi Calm Calm - N/A   Clear
8:35 PM 73.4 °F - 60.8 °F 65% 30.06 in 10.0 mi SSE 5.8 mph - N/A   Clear
8:55 PM 77.0 °F - 59.0 °F 54% 30.06 in 10.0 mi SSE 5.8 mph - N/A   Clear
9:15 PM 77.0 °F - 59.0 °F 54% 30.07 in 10.0 mi SSE 4.6 mph - N/A   Clear
9:35 PM 75.2 °F - 57.2 °F 53% 30.07 in 10.0 mi SSE 4.6 mph - N/A   Clear
9:55 PM 73.4 °F - 57.2 °F 57% 30.08 in 10.0 mi SE 3.5 mph - N/A   Clear
10:15 PM 73.4 °F - 59.0 °F 61% 30.08 in 10.0 mi SE 3.5 mph - N/A   Clear
10:35 PM 69.8 °F - 59.0 °F 68% 30.08 in 10.0 mi Calm Calm - N/A   Clear
10:55 PM 68.0 °F - 59.0 °F 73% 30.08 in 10.0 mi Calm Calm - N/A   Clear
11:15 PM 66.2 °F - 59.0 °F 78% 30.08 in 10.0 mi Calm Calm - N/A   Clear
11:35 PM 66.2 °F - 59.0 °F 78% 30.08 in 10.0 mi Calm Calm - N/A   Clear
11:55 PM 66.2 °F - 57.2 °F 73% 30.07 in 10.0 mi Calm Calm - N/A   Clear